Погода в Орловке

Россия / Тверская область     56°09′42″N   35°04′10″E
темп.,
°C
ветер,
м/с
пор.,
м/с
влажн.,
%
обл.,
%
осадки,
мм/ч
давл.,
гПа
погр.,
м
17 апреля, сб
сб1700:00+8всв51289100 0.3 1022577
03:00+8всв51190100 0.3 1021641
06:00+7всв51089100 0.1 1022430
09:00+8всв5983100 0.1 1023558
12:00+11всв5875100 0.1 1023864
15:00+14всв696066 0.1 10211215
18:00+14всв611608 0.0 10211134
21:00+10всв6146842 0.0 1021722
18 апреля, вс
вс1800:00+8всв5136639 0.0 1022555
03:00+6св613719 0.0 1022494
06:00+4св5137767 0.0 1022539
09:00+7всв6116357 0.0 1022727
12:00+11всв79489 0.0 10221401
15:00+12всв61047100 0.0 10221872
18:00+10юв4863100 0.0 1022780
21:00+6вюв31085100 0.0 1024516
19 апреля, пн
пн1900:00+6всв41084100 0.0 10251054
03:00+6всв4990100 0.6 1025981
06:00+5всв5989100 0.2 1025761
09:00+5всв5890100 0.3 1026743
12:00+4всв51088100 1.0 1026820
15:00+4всв41092100 2.0 1026840
18:00+5в41090100 0.4 1025941
21:00+4в51193100 0.5 1025910
20 апреля, вт
вт2000:00+4в51096100 0.7 1024860
03:00+3в51193100 1.3 1024755
06:00+2в5117776 0.0 1023585
09:00+2всв51186100 0.1 1022568
12:00+2всв51396100 0.9 1020580
15:00+2всв61597100 4.3 1017577
18:00+4всв61597100 2.9 10121056
21:00+5в81795100 7.6 10081242
21 апреля, ср
ср2100:00+4в81997100 4.5 10031356
03:00+6в71594100 6.6 1000896
06:00+7в71495100 0.9 997948
09:00+7вюв51296100 2.4 995902
12:00+7юв3895100 0.6 995467
15:00+7ю51094100 0.6 997520
18:00+4юз61195100 0.1 1001786
21:00+2юз61497100 3.3 1006686